Change the Weather History Date:

Tuesday, October 1, 2013

  Actual Average Record
Temperature  
Mean Temperature 65 °F 57 °F  
Max Temperature 78 °F 73 °F 94 °F (1963)
Min Temperature 51 °F 42 °F 23 °F (1984)
Growing Degree Days 14 (Base 50)    
Moisture  
Dew Point 44 °F    
Average Humidity 54    
Maximum Humidity 89    
Minimum Humidity 25    
Precipitation  
Precipitation 0.00 in 0.06 in 1.05 in (1998)
Month to date precipitation 0.00 0.06  
Year to date precipitation 11.52 19.21  
Sea Level Pressure  
Sea Level Pressure 29.89 in    
Wind  
Wind Speed 8 mph (ENE)    
Max Wind Speed 17 mph    
Max Gust Speed 21 mph    
Visibility 10 miles    
Events      
T = Trace of Precipitation, MM = Missing Value Source: NWS Daily Summary

Daily Weather History Graph

Daily Weather History Graph

Search for Another Location

Airport or City:

Trip Planner

Search our weather history database for the weather conditions in past years. The results will help you decide how hot, cold, wet, or windy it might be!

Date:

Astronomy

Oct. 01, 2013 Rise Set
Actual Time 7:39 AM CDT 7:24 PM CDT
Civil Twilight 7:11 AM CDT 7:51 PM CDT
Nautical Twilight 6:40 AM CDT 8:22 PM CDT
Astronomical Twilight 6:08 AM CDT 8:54 PM CDT
Moon 4:14 AM CDT (10/1) 5:29 PM CDT (10/1)
Length of Visible Light 12h 39m
Length of Day
11h 45m
Waning Crescent, 12% of the Moon is Illuminated
Oct 1
Waning Crescent
Oct 4
New
Oct 11
First Quarter
Oct 18
Full
Oct 26
Last Quarter

Hourly Weather History & Observations

Time (CDT) Temp. Dew Point Humidity Pressure Visibility Wind Dir Wind Speed Gust Speed Precip Events Conditions
12:53 AM 62.1 °F 50.0 °F 65% 29.72 in 10.0 mi SW 6.9 mph - N/A   Clear
1:53 AM 57.0 °F 48.9 °F 74% 29.74 in 10.0 mi Calm Calm - N/A   Clear
2:53 AM 55.0 °F 48.9 °F 80% 29.75 in 10.0 mi NE 3.5 mph - N/A   Clear
3:53 AM 51.1 °F 48.0 °F 89% 29.78 in 9.0 mi North 4.6 mph - N/A   Clear
4:53 AM 53.1 °F 48.9 °F 86% 29.80 in 10.0 mi NNE 3.5 mph - N/A   Clear
5:53 AM 55.0 °F 48.0 °F 77% 29.83 in 10.0 mi NNE 13.8 mph - N/A   Clear
6:53 AM 53.1 °F 46.0 °F 77% 29.88 in 10.0 mi NNE 10.4 mph - N/A   Clear
7:53 AM 51.1 °F 42.1 °F 71% 29.93 in 10.0 mi NNE 8.1 mph - N/A   Clear
8:53 AM 55.9 °F 41.0 °F 57% 29.96 in 10.0 mi NNE 6.9 mph - N/A   Clear
9:53 AM 61.0 °F 39.0 °F 44% 29.99 in 10.0 mi NE 17.3 mph - N/A   Clear
10:53 AM 66.9 °F 36.0 °F 32% 29.99 in 10.0 mi NE 12.7 mph - N/A   Clear
11:53 AM 70.0 °F 35.1 °F 28% 29.98 in 10.0 mi NE 12.7 mph - N/A   Clear
12:53 PM 73.0 °F 36.0 °F 26% 29.95 in 10.0 mi ENE 16.1 mph - N/A   Clear
1:53 PM 75.0 °F 37.0 °F 25% 29.94 in 10.0 mi East 13.8 mph 20.7 mph N/A   Clear
2:53 PM 77.0 °F 39.0 °F 25% 29.92 in 10.0 mi East 12.7 mph - N/A   Clear
3:53 PM 77.0 °F 39.9 °F 26% 29.92 in 10.0 mi ESE 12.7 mph - N/A   Clear
4:53 PM 78.1 °F 43.0 °F 29% 29.90 in 10.0 mi East 12.7 mph - N/A   Clear
5:53 PM 77.0 °F 44.1 °F 31% 29.90 in 10.0 mi East 12.7 mph - N/A   Clear
6:53 PM 73.0 °F 45.0 °F 37% 29.91 in 10.0 mi ESE 9.2 mph - N/A   Clear
7:53 PM 66.9 °F 46.9 °F 49% 29.92 in 10.0 mi ESE 8.1 mph - N/A   Clear
8:53 PM 63.0 °F 46.9 °F 56% 29.92 in 10.0 mi East 4.6 mph - N/A   Clear
9:53 PM 61.0 °F 48.0 °F 62% 29.93 in 10.0 mi ENE 3.5 mph - N/A   Clear
10:53 PM 57.0 °F 48.0 °F 72% 29.92 in 10.0 mi NE 5.8 mph - N/A   Clear
11:53 PM 55.9 °F 48.9 °F 77% 29.91 in 10.0 mi Calm Calm - N/A   Clear